TIMESTAMP,CO2_1_1_1,H2O_1_1_1,TAU_1_1_1,TAU_SSITC_TEST_1_1_1,H_1_1_1,H_SSITC_TEST_1_1_1,LE_1_1_1,LE_SSITC_TEST_1_1_1,FC_1_1_1,FC_SSITC_TEST_1_1_1,WD_0_0_1,WS_0_0_1,WS_MAX_0_0_1,U_SIGMA_0_0_1,V_SIGMA_0_0_1,W_SIGMA_0_0_1,USTAR_0_0_1,MO_LENGTH_0_0_1,ZL_0_0_1,FETCH_MAX_0_0_1,FETCH_70_0_0_1,FETCH_80_0_0_1,FETCH_90_0_0_1,PA_0_0_1,RH_0_0_1,TA_0_0_1,VPD_0_0_1,T_SONIC_0_0_1,T_SONIC_SIGMA_0_0_1
[yyyymmddHHMMSS],[mmolCO2 mol-1],[mmolH2O mol-1],[kg m-1 s-2],[#],[W m-2],[#],[W m-2],[#],[umolCO2 m-2 s-1],[#],[Decimal degrees],[m s-1],[m s-1],[m s-1],[m s-1],[m s-1],[m s-1],[m],[#],[m],[m],[m],[m],[kPa],[%],[deg C],[hPa],[deg C],[deg C]
20240625003000,409.59136679044030,17.140270235762380,0.53207385403147556,0,-10.814350941030035,0,101.51253409404950,0,-0.97606996668142021,0,158.59931881418959,2.9102083218620254,10.732247768710392,1.4054090654163749,1.1111841349988496,0.83804697835616937,0.69730265710093930,2614.2519218091556,7.2678535077259588E-003,108.08794606510622,197.61923828930631,236.49975557457799,296.06962989745148,93.701169390269939,56.559333333333335,23.230333333333306,12.338755394152093,24.193233453663879,0.11102493706904940
20240625010000,409.75845261522045,17.414897367872570,0.37167927253587235,0,-50.052110514751895,0,52.857094463801495,0,3.0399728098367902,0,161.56703904322515,2.9891719447877585,9.2620132411118963,1.2767287545596953,1.1099048045164781,0.78397496808975486,0.58241703639718412,329.04890414638896,5.7742176802835311E-002,98.718920807899508,180.48967202178542,216.00003970462544,270.40641821304934,93.665384077907987,59.328000000000003,22.697000000000003,11.185421073002269,23.772299697875951,0.26781212842420971
20240625013000,409.11745167844384,17.767406426163411,0.37716042324649718,0,-46.745510955438718,0,20.538149565246343,0,4.4329538640172368,0,155.02639923677580,3.1112517873732242,7.7869723133995077,1.3003876033101931,1.0707660799320593,0.71956413254054585,0.58622798028497392,359.23647799979091,5.2889951782711386E-002,106.28024050052250,194.31417597912795,232.54444011398687,291.11804429559828,93.641032895833348,62.715000000000003,22.108999999999980,9.8939436475157549,23.279143458896215,0.19071569714515765
20240625020000,409.58730411879083,18.039191081656679,0.46359031205846196,0,-64.704363986912867,0,15.908143836237750,0,4.9192700844902095,0,139.63226062698641,3.1375947594361571,8.2464847219200443,1.2265064911369317,1.0187879647335798,0.71472981680884884,0.64978624789737527,353.21105508266288,5.3792200800604560E-002,116.02666042269179,212.13374005805539,253.86990713629308,317.81499843555088,93.556308656684038,65.322666666666663,21.675333333333356,8.9616587750579146,22.894936589558995,0.26691912171139504
20240625023000,412.64914785050797,18.169812896583792,0.44648034393983610,0,-77.722153712042186,0,6.4512226442209464,1,7.9526408622634870,0,141.21342667302028,3.0252937945349982,7.3570590719395206,1.2248174233854141,0.93558589700632078,0.73083449703173586,0.63699287449357278,277.04942629660411,6.8579820770532637E-002,112.17790581536525,205.09698913853853,245.44871349689333,307.27266329421229,93.567752847913894,68.334666666666664,21.059333333333313,7.8801796355921310,22.325673657944151,0.25775600828239165
20240625030000,415.27444256483437,18.560795336495708,0.48109590667677649,0,-89.509713228222580,0,10.326880579595009,2,12.784937504389552,0,146.64568592568412,3.0948612958205994,7.6680534721007350,1.2287495776571005,1.0769972206148868,0.77091110814570307,0.66054763498510460,268.38671884390101,7.0793368918716029E-002,110.65594988358890,202.31436829230310,242.11862703523016,303.10379020664493,93.626549320312492,71.861333333333334,20.597666666666669,6.8064447332977149,21.892587938944530,0.24775422266469369
20240625033000,416.17042423085758,19.044773350803677,0.80472012780595048,0,-83.983524146184777,0,0.88945957243850038,1,15.034179729285031,0,145.04440363715420,3.7945026171836140,9.5539399071770781,1.5952288166845665,1.2991528191449913,1.0015975165411688,0.85408949272738932,618.23489792823420,3.0732655279847296E-002,110.23081333137162,201.53708308450098,241.18841516290314,301.93927532544780,93.591671091145841,75.125000000000000,20.288999999999987,5.9034799687288615,21.630444420708557,0.19399307842822133
20240625040000,416.00738380979010,19.321481563443964,0.69546508479403846,0,-67.450393102513857,0,3.7567569582525340,0,12.281040870616680,0,144.98608800925268,3.7401105565008765,11.061900678463493,1.6860116960626603,1.3517545342304105,0.96509446503920071,0.79400927418355605,618.39611697113526,3.0724643118816446E-002,107.11727106160090,195.84453480198457,234.37588876584911,293.41080068012678,93.566531309037615,76.670000000000002,20.188666666666677,5.5025843588026762,21.566114828240416,0.18816596989255652
20240625043000,415.61836786100992,19.361897609270571,0.69676114678468271,0,-52.058686893212595,0,6.4153373480035745,0,8.0382044697836008,0,135.82327886670120,3.5110966635325469,9.0593334860701571,1.4748746114341256,1.1831609429847212,0.91209866981817178,0.79515847972452691,804.12871114016139,2.3628058216028876E-002,112.19781457751274,205.13338870531814,245.49227448174946,307.32719647811768,93.470090041666680,76.773333333333326,20.184000000000026,5.4766318728784995,21.543476537068727,0.14179718334753788
20240625050000,415.98148990225104,19.475119294655837,0.76806597137669075,0,-62.809267580624656,0,6.8887547397234767,0,9.5064866345430712,0,139.98541517296960,3.7146765257118060,9.8808485243560824,1.6884950491644413,1.3071114361296960,0.96988744322918286,0.83554628874706616,772.64780267178833,2.4590764296874571E-002,111.13586704378665,203.19180992287235,243.16870056530215,304.41835766003697,93.357558865885409,76.561000000000007,20.303666666666686,5.5677224129502267,21.679272123972623,0.16714508794950575
20240625053000,416.73775996065274,19.891371051996856,0.61021814708416788,0,-108.92326452504255,0,20.406929531938363,0,12.568823235722457,0,152.93442093073190,3.9739468881017062,10.769624440771322,1.5459386894869387,1.4826447713896937,1.0054146706264493,0.74448514748689620,315.24420249216234,6.0270735670301126E-002,98.460844362395591,180.01782597014358,215.43536049197328,269.69950684608182,93.380262844184031,79.132333333333335,20.115333333333353,4.8995501710421676,21.577733036182565,0.26071207337660968
20240625090000,436.03399541611282,20.722683250863543,0.12849462930861100,0,102.91519657811735,0,-11.212566012601219,1,3.4847152278009750,1,318.56686224096381,0.96811141149765600,29.972354602215617,1.3015978443257090,1.0965844765582575,0.47308034811419253,0.34030724291792280,-31.837906145611139,-0.59677291317787096,96.206391976301816,175.89596798765402,210.50254922415121,263.52421248744758,93.250166471194788,97.856666666666669,17.351333333333343,0.42336152212822981,18.761574540432775,0.55466850045146232
20240625093000,437.73294441578474,20.677810291603716,3.5982827300972298E-002,0,-8.6905841384955380,0,1.2481960094171320,1,1.9018711958073637,0,87.959921215194967,1.4609279461714737,3.6422551549158508,0.66705129803920671,0.83019121243237881,0.24327291838063711,0.18006075908251801,55.844383830693374,0.34023116912890278,97.778923578153993,868.00000000000000,1574.0000000000000,4161.0000000000000,93.239669260850704,98.280000000000001,17.247000000000014,0.33750875992401008,18.612605617947111,0.12058799021742392
20240625100000,436.45933651997240,20.789231713222282,1.2800623066366694E-002,1,-5.6950727926696478,1,-0.24315669121484867,2,1.7302550796625824,1,140.74400249394921,0.97469115644956961,2.9107335960020473,0.47128745515601178,0.68513437527560084,0.14673877807695324,0.10739051380875632,18.089431687834804,1.0503370325767369,120.48204863226707,1023.0000000000000,1833.0000000000000,4740.0000000000000,93.313368129340262,97.713333333333338,17.435999999999979,0.45409614686334637,18.889712027655719,0.33092704810008283
20240625103000,439.62018607937034,20.235473301519562,2.6803690101507793E-002,1,-16.204240868480710,1,-9.2321979355094257,2,5.9162539546677770,1,184.04416932372681,1.3314304987775227,3.7540421797791561,0.69102494609502341,1.3553019420958203,0.20889964934345467,0.15532888022465446,19.238568807665178,0.98759945139109695,107.85320225515302,911.00000000000000,1629.0000000000000,4201.0000000000000,93.332270790553082,95.983333333333334,17.294666666666672,0.79055418598169813,18.632764708807713,0.50027782743023619
20240625110000,441.36168730923407,20.331598069050489,1.1493503157488297E-002,0,-1.8911066483145653,2,0.32762158549330217,2,2.3254020815242537E-002,2,225.95131811696439,1.9661185438997804,3.2392567266002441,0.38148238685816682,0.24545509792745016,0.13332074548697173,0.10165353147230957,46.208826273116358,0.41117685802493387,386.47830446959244,4097.0000000000000,7817.0000000000000,-9999.,93.339365573350690,98.510000000000005,16.960333333333324,0.28711692158523422,18.390104576110843,0.21297356255372082
20240625113000,440.44668764307835,20.624619340518816,6.8802763923558316E-002,0,-9.4783009134193463,0,-16.770690596144277,1,-0.62507592036577841,2,212.72661918250941,2.1679548980876775,4.1209905292646720,0.54046474744080142,0.61758010428314680,0.30495324509160043,0.24880211825510548,135.19517251529453,0.14053756244773122,106.40243119889774,194.53757954648233,232.81179712604282,291.45274354895520,93.348830228298610,98.656666666666666,17.164333333333332,0.26222171576384878,18.622940436469207,0.12561912273490869
20240625120000,440.12934881617969,21.162586408350311,0.11627049457782063,1,7.5342288044339867,1,4.1643738466464937,1,-2.2990120012788959,0,202.33055582622768,2.0988204377950068,4.3243169348934574,0.61201354977984024,0.60068563753351989,0.40653838836680023,0.32370405346102282,-374.65247885164524,-5.0713664188843155E-002,104.34992975621483,190.78495229749771,228.32086074338099,285.83062411176019,93.363249918402786,98.283333333333331,17.634333333333359,0.34519721354927468,19.109760920206782,0.22014491848292200
20240625123000,434.99465967339114,21.855947060384082,8.7924612544622013E-002,0,12.970979104006814,0,18.797939628247651,0,-3.4801573628521036,0,211.60663677825087,1.7583932170506251,4.0969616510924736,0.68537206075864221,0.60557412194681037,0.38823832758987792,0.28185214189660962,-143.72208083868429,-0.13219958888102845,96.915501058719244,177.19244554905526,212.05410174015901,265.46657212357007,93.408078223958341,96.546666666666667,18.438333333333333,0.73041849744511411,19.985106527540552,0.35381348023177089
20240625130000,429.96287175958503,22.109562125956778,8.9070154385631942E-002,0,20.847473873623997,0,68.652666868565504,0,-4.8316976922457968,0,208.16708892018039,1.8706264014328400,5.0889780808013958,0.70310666025508806,0.64854305504121390,0.40184590394328690,0.28421462349779225,-91.679005353582909,-0.20724483131903285,94.912715466446471,173.53071473067760,207.67194516966140,259.98063210292264,93.385390803819433,91.756666666666661,19.434333333333313,1.8554138534435742,21.052502522786426,0.24859951737067512
20240625133000,428.61867518320975,22.459978898249677,0.27022118377832904,0,49.049934941798966,0,103.65035231326873,0,-9.2976680969301935,0,234.71445328064576,2.7460024273909545,6.1076736506505185,0.94123888043423265,0.75955185923634960,0.59361562731915640,0.49556429005232516,-206.55329808887618,-9.1985943462518038E-002,108.37538231682564,198.14476343054002,237.12867494764083,296.85696232223842,93.371819642361103,90.133333333333340,19.973000000000013,2.2962896558271950,21.591759693569600,0.24002923323691441
20240625140000,425.91060440078883,22.707841122894706,0.29513060088758669,0,17.148783333246286,0,36.155027488419485,0,-10.455521454028181,0,245.04526984818884,2.7751080410092341,6.9041568915771698,1.0303996565939066,1.0347197078069605,0.60996480081301663,0.51806336628149519,-675.24409987417323,-2.8137972628773076E-002,109.87968031470849,200.89509994190894,240.42012530600297,300.97746759319978,93.417926715277773,89.496666666666670,20.273000000000025,2.4902493707236046,21.893619746738011,0.11264786502163662
20240625143000,418.11318770469944,22.451340676103122,0.33022249401608078,0,62.998449339898393,0,130.26665117838269,0,-11.550705539128375,0,269.27790603345704,2.8077197285994644,7.0593734911374382,1.1470832326747316,0.99823010100128784,0.70188253393360045,0.54861468721674356,-218.34092137777762,-8.7019876439587973E-002,102.81519313567715,187.97896427601495,224.96280974100662,281.62674273761547,93.457400138454858,84.195999999999998,21.086666666666645,3.9395626929776655,22.611862930297889,0.44272129343015043
20240625150000,415.20660544994615,21.803413091870127,0.60005345678503330,0,103.53222109897524,0,204.18834318209417,0,-17.137584890179426,0,279.76884468898453,3.2996393832730297,9.2885140297002362,1.4808023733842428,1.2096210589621275,0.77710106861757533,0.74033613445614832,-326.37645994799135,-5.8214982793267880E-002,120.45256496907652,220.22570513870269,263.55392262110865,329.93823667545854,93.424372345625216,78.758666666666670,21.692666666666639,5.4952134989055939,23.117210616921284,0.34129030083288231
20240625153000,414.60712638908024,20.655984457840489,0.62174558449332729,0,150.78477838385473,0,181.83637529524054,0,-13.284436243202945,0,280.41010492301643,3.4152986849836999,9.2586599551156219,1.5859573345524549,1.2087434643651824,0.88361426966657097,0.75422187233882210,-236.91635239118207,-8.0197081409679738E-002,110.31740094140562,201.69539285134493,241.37787152093674,302.17645220399658,93.433614048177091,71.739666666666665,22.338666666666654,7.6047238986071832,23.591800770229838,0.38426168281100870
20240625170000,432.97502514411514,14.282147370194599,0.76141385700465924,0,205.59883514716458,0,-9999.,-9999.,-7.9112670283731648,1,270.68711976877745,3.7829385703691423,11.177421502045384,1.8146635331453369,1.6272030881620030,1.0055823795399987,0.83366122047802071,-235.30504091035399,-8.0746251446600234E-002,107.77361634860966,197.04454331722934,235.81199247214579,295.20863210614505,93.944118935329854,45.188000000000002,23.971333333333348,16.279164659743167,24.508857772827184,0.46391527310647135
20240625173000,433.27218321123911,13.189665842457398,0.94403261921002801,0,248.15023436381330,0,-9999.,-9999.,-11.439107513196690,0,273.73840533496121,3.7048625081157192,9.9765262679596045,1.6859163052332293,1.8430177492734430,1.0595032326004559,0.92846655902367003,-269.32202198959061,-7.0547517279275274E-002,112.66423804245075,205.98615955735920,246.51282339092793,308.60480260967006,93.968603033637152,40.926666666666669,24.300333333333356,17.894441403842215,24.729672535366490,0.42763734012343063
20240625180000,432.68384648440622,11.749324316156152,0.77387657108336017,0,198.73155488993933,0,-9999.,-9999.,-3.5616192122986639,2,274.66741351969915,4.6563248662282026,11.860526182126488,2.0777139580750577,1.7636754924695355,1.0082583505191711,0.84046756514464338,-249.40158991270994,-7.6182353154404359E-002,108.24658505405284,197.90928095641124,236.84686256917178,296.50416666546857,93.974383712673614,36.326666666666668,24.361333333333334,19.358463969318723,24.617189082675509,0.43786243892916987
20240625183000,432.04292316970987,10.903952331605598,0.87783003799549963,0,209.03588692040725,0,-9999.,-9999.,-7.9819713778273087,0,269.15232327346405,4.4516054078678193,10.809453614278903,1.7599428233722332,1.7560990782246022,1.0903077350657702,0.89551730697085474,-286.77777060176652,-6.6253391816705060E-002,106.97315680198265,195.58104797251673,234.06056232645133,293.01604939599724,93.973750761935761,33.023666666666664,24.706666666666649,20.787538223221855,24.909901280721044,0.41749118436927879
20240625190000,431.31756624600087,10.221722079147948,0.88498778360233721,0,179.63722253446682,0,-9999.,-9999.,-0.38837557486333690,2,280.54908916827969,4.3565923539685940,12.890719689019329,1.9332876321445140,2.0739628738534575,1.0506004464116547,0.89963016086031178,-338.29675076024478,-5.6163708215647458E-002,110.60023269239252,202.21249949670943,241.99671610455798,302.95117218792063,93.974308952256948,30.245999999999999,25.096666666666692,22.159035736286807,25.261609257168288,0.38109422869633097
20240625193000,434.28697803089671,10.107703199586927,1.0875520978045325,0,220.85413430880243,0,-9999.,-9999.,-17.724933846029156,0,280.24494718060191,4.1612157234129468,10.846385658031332,1.7705055101481182,1.8923989388477305,1.1835432886568653,0.99781299523758249,-375.45465672119354,-5.0605311879535660E-002,109.23125079991388,199.70956398287768,239.00134155315141,299.20131869363433,93.979573921657988,29.304666666666666,25.440666666666687,22.922205024205486,25.584402216593389,0.36949364623099878
20240625200000,433.84193617356823,10.304543444152092,1.5422228216811698,0,219.03228414884907,0,-9999.,-9999.,-12.383997746199064,0,277.44228592348952,5.4846206971618212,15.581317451275906,2.4519149032619185,1.9327679327923772,1.3424270464089596,1.1883239451447067,-639.54644780379613,-2.9708553718414105E-002,113.57695570255397,207.65489853639534,248.50987774695201,311.10487768432142,93.993275979600696,29.751666666666665,25.512999999999977,22.875297222302205,25.544216731601296,0.35190365363404436
20240625203000,433.20934703704717,11.244473650675722,1.1840779072107930,0,137.42381755913297,0,-9999.,-9999.,-17.776081506484914,0,265.66046683231463,4.8114503155122419,14.369786819730658,2.3124058246567074,2.1341045527225115,1.1819001821788353,1.0414483920109308,-686.26251344763011,-2.7686198251669365E-002,113.16196056914376,206.89615507661216,247.60185561137513,309.96814172040553,93.992073898476576,32.448999999999998,25.521333333333303,22.007834309811297,25.709434147951924,0.30805632301249969
20240625210000,432.19271361035948,11.855198639160049,0.88124253571467726,0,113.17514218134788,0,-9999.,-9999.,-5.5319094130543576,0,267.23442417578519,5.3676160439384564,12.845494565533352,2.0146083937970722,1.7195437256468666,1.1729920296452618,0.89838490140731331,-535.00165104004600,-3.5513909093670831E-002,101.15533819652289,184.94422006366008,221.33099600330470,277.08014290470862,94.003250074001741,34.376333333333335,25.442333333333352,21.279877537093803,25.672283211602121,0.25629070120651604
20240625213000,432.71378261749055,12.604281086671197,0.73151501522206597,0,93.573296441024496,0,-9999.,-9999.,-3.6118575349070148,1,258.76407355445161,4.1456366689925952,11.541893356284723,1.8343656875942402,1.4215783306765895,0.95050828568360446,0.81864011684940441,-489.71864764268815,-3.8797787446850314E-002,111.11292815411929,203.14987031657677,243.11850956809127,304.35552448740935,94.017189089409712,36.443333333333335,25.493333333333339,20.672111561390476,25.810897304111052,0.24093048001988704
20240625220000,431.77033756359077,12.355610064050312,1.5173241529861676,0,60.033883155438694,0,-9999.,-9999.,-5.5884626972308320,1,255.70091340751509,5.0321998999899265,13.956371259319340,2.4570556302521140,2.0585733659804766,1.2574170980563255,1.1787057847012683,-2278.5458304744639,-8.3386516724325063E-003,118.90380226193827,217.39407295752324,260.16518210918713,325.69593567711047,94.028575368489598,35.928666666666665,25.399333333333345,20.723504054736910,25.738045648362913,0.21363929150638955
20240625223000,429.12823462842437,12.563550588572618,0.75770023658969032,0,4.9989724638045825,1,-9999.,-9999.,-5.4459734777234807,0,260.03551145042667,5.1494513762361604,12.234156889552937,1.8201253085447788,1.6368225900510811,1.0429870603375342,0.83232706233148357,-9635.9887457946461,-1.9717748226192162E-003,104.53626424124525,191.12563116446927,228.72856633654922,286.34102313430117,94.042808536458338,37.462000000000003,24.980000000000018,19.729109868805775,25.411002694023978,0.16597675112260160
20240625230000,431.83163153093085,13.405989945500099,0.71732295616363539,0,78.459305005138745,0,-9999.,-9999.,-2.5739465307157579,1,266.53705997195561,4.1213557414303041,11.819534982162899,1.7766850885985872,1.4256664513531150,1.0118288354688467,0.81046836489516205,-566.94796011196115,-3.3512776016070098E-002,104.84750792895488,191.69468389168532,229.40957711293234,287.19356781465433,94.048526371093743,39.081000000000003,25.360666666666646,19.658684893524136,25.766205264621306,0.16416397079224340
20240625233000,430.06217327789307,13.452018749634453,0.84435299423134236,0,12.316113588355284,1,-9999.,-9999.,-4.4992160419717706,1,280.56412085861967,3.9777345897989318,11.133806990031397,1.6883979267090901,1.7890124799839013,0.97271816140757639,0.87908083183847674,-4608.7133899205464,-4.1226256424523626E-003,115.47509508453805,211.12530270716829,252.66306518577443,316.30417552257705,94.044332849175348,39.617333333333335,25.188333333333333,19.286953008723838,25.648575568305205,0.16718221553589779
20240626000000,427.23905645151291,13.321896774465616,0.46410332104026658,0,-20.476104857735582,0,-9999.,-9999.,-0.54217294279378636,0,288.57462304847297,3.6012751524324860,9.5926933406632866,1.4968748401715011,1.2149604389863640,0.82221534659597850,0.65087985309096363,1125.2114419423344,1.6885715245840635E-002,103.86449169339923,189.89741669614148,227.25870730831309,284.50093405076694,94.053465357204857,41.016666666666666,24.445333333333338,18.022967267219837,25.031473255581375,0.15223462194245632
